| time (UTC) | temp F | wind direction | speed MPH | gust MPH | rain 1hr in | rain 24hr in | rain mn in | humidity % | barometer mb |
| 20260505124547 | 76 | 52 | 6.0 | 13.0 | 0.00 | 0.00 | 0.00 | 67 | 1023.7 |
| 20260505124047 | 76 | 53 | 5.0 | 10.0 | 0.00 | 0.00 | 0.00 | 68 | 1023.7 |
| 20260505123547 | 76 | 32 | 5.0 | 9.0 | 0.00 | 0.00 | 0.00 | 69 | 1023.5 |
| 20260505123047 | 75 | 46 | 5.0 | 10.0 | 0.00 | 0.00 | 0.00 | 71 | 1023.6 |
| 20260505122547 | 75 | 55 | 4.0 | 10.0 | 0.00 | 0.00 | 0.00 | 71 | 1023.7 |
| 20260505122047 | 75 | 55 | 4.0 | 10.0 | 0.00 | 0.00 | 0.00 | 71 | 1023.7 |
| 20260505121547 | 74 | 47 | 4.0 | 10.0 | 0.00 | 0.00 | 0.00 | 72 | 1023.5 |
| 20260505121047 | 74 | 56 | 5.0 | 11.0 | 0.00 | 0.00 | 0.00 | 73 | 1023.5 |
| 20260505120547 | 73 | 76 | 5.0 | 9.0 | 0.00 | 0.00 | 0.00 | 74 | 1023.3 |
| 20260505120047 | 73 | 76 | 5.0 | 9.0 | 0.00 | 0.00 | 0.00 | 74 | 1023.3 |
| 20260505115547 | 72 | 60 | 4.0 | 8.0 | 0.00 | 0.00 | 0.00 | 75 | 1023.3 |
| 20260505115047 | 72 | 53 | 5.0 | 10.0 | 0.00 | 0.00 | 0.00 | 75 | 1023.3 |
| 20260505114547 | 72 | 53 | 5.0 | 10.0 | 0.00 | 0.00 | 0.00 | 75 | 1023.3 |
| 20260505114047 | 72 | 63 | 4.0 | 10.0 | 0.00 | 0.00 | 0.00 | 76 | 1023.1 |
| 20260505113547 | 72 | 76 | 4.0 | 7.0 | 0.00 | 0.00 | 0.00 | 77 | 1023.1 |
| 20260505113047 | 71 | 68 | 4.0 | 9.0 | 0.00 | 0.00 | 0.00 | 77 | 1023.0 |
| 20260505112547 | 71 | 83 | 4.0 | 8.0 | 0.00 | 0.00 | 0.00 | 79 | 1022.9 |
| 20260505112047 | 70 | 77 | 5.0 | 8.0 | 0.00 | 0.00 | 0.00 | 80 | 1022.7 |
| 20260505111547 | 70 | 77 | 5.0 | 8.0 | 0.00 | 0.00 | 0.00 | 80 | 1022.7 |
| 20260505111047 | 70 | 85 | 6.0 | 9.0 | 0.00 | 0.00 | 0.00 | 80 | 1022.7 |
| 20260505110547 | 69 | 85 | 5.0 | 8.0 | 0.00 | 0.00 | 0.00 | 82 | 1022.6 |
| 20260505102047 | 66 | 83 | 4.0 | 7.0 | 0.00 | 0.00 | 0.00 | 88 | 1022.4 |
| 20260505101547 | 66 | 86 | 5.0 | 8.0 | 0.00 | 0.00 | 0.00 | 89 | 1022.3 |
| 20260505101047 | 66 | 83 | 5.0 | 7.0 | 0.00 | 0.00 | 0.00 | 89 | 1022.1 |
| 20260505100547 | 66 | 85 | 5.0 | 8.0 | 0.00 | 0.00 | 0.00 | 89 | 1022.0 |
| 20260505100047 | 65 | 89 | 5.0 | 8.0 | 0.00 | 0.00 | 0.00 | 90 | 1022.0 |
| 20260505095547 | 65 | 90 | 5.0 | 7.0 | 0.00 | 0.00 | 0.00 | 90 | 1021.9 |
| 20260505095047 | 65 | 92 | 5.0 | 7.0 | 0.00 | 0.00 | 0.00 | 90 | 1021.9 |
| 20260505094547 | 65 | 92 | 5.0 | 7.0 | 0.00 | 0.00 | 0.00 | 90 | 1021.9 |
| 20260505094047 | 65 | 91 | 5.0 | 7.0 | 0.00 | 0.00 | 0.00 | 90 | 1021.8 |
| 20260505093547 | 65 | 92 | 5.0 | 7.0 | 0.00 | 0.00 | 0.00 | 90 | 1021.7 |
| 20260505093047 | 65 | 92 | 5.0 | 7.0 | 0.00 | 0.00 | 0.00 | 90 | 1021.7 |
| 20260505092547 | 66 | 92 | 5.0 | 8.0 | 0.00 | 0.00 | 0.00 | 90 | 1021.6 |
| 20260505092047 | 66 | 93 | 5.0 | 7.0 | 0.00 | 0.00 | 0.00 | 89 | 1021.3 |
| 20260505091547 | 66 | 96 | 5.0 | 7.0 | 0.00 | 0.00 | 0.00 | 89 | 1021.3 |
| 20260505091047 | 66 | 97 | 5.0 | 7.0 | 0.00 | 0.00 | 0.00 | 89 | 1021.3 |
| 20260505090547 | 66 | 97 | 5.0 | 7.0 | 0.00 | 0.00 | 0.00 | 89 | 1021.3 |
| 20260505090047 | 66 | 97 | 5.0 | 7.0 | 0.00 | 0.00 | 0.00 | 89 | 1021.3 |
| 20260505085547 | 66 | 98 | 6.0 | 7.0 | 0.00 | 0.00 | 0.00 | 89 | 1021.2 |
| 20260505085047 | 66 | 97 | 5.0 | 7.0 | 0.00 | 0.00 | 0.00 | 89 | 1021.2 |
| 20260505084547 | 66 | 97 | 5.0 | 7.0 | 0.00 | 0.00 | 0.00 | 89 | 1021.2 |
| 20260505084047 | 66 | 100 | 5.0 | 7.0 | 0.00 | 0.00 | 0.00 | 89 | 1021.1 |
| 20260505083547 | 66 | 100 | 5.0 | 7.0 | 0.00 | 0.00 | 0.00 | 89 | 1021.0 |
| 20260505083047 | 66 | 100 | 5.0 | 7.0 | 0.00 | 0.00 | 0.00 | 89 | 1021.0 |
| 20260505082547 | 66 | 100 | 5.0 | 7.0 | 0.00 | 0.00 | 0.00 | 89 | 1021.0 |
| 20260505082047 | 66 | 103 | 5.0 | 7.0 | 0.00 | 0.00 | 0.00 | 89 | 1021.0 |
| 20260505081547 | 67 | 107 | 4.0 | 7.0 | 0.00 | 0.00 | 0.00 | 88 | 1020.9 |
| 20260505081047 | 67 | 115 | 4.0 | 7.0 | 0.00 | 0.00 | 0.00 | 88 | 1020.9 |
| 20260505080547 | 67 | 113 | 3.0 | 7.0 | 0.00 | 0.00 | 0.00 | 88 | 1021.0 |
| 20260505080047 | 67 | 113 | 3.0 | 7.0 | 0.00 | 0.00 | 0.00 | 88 | 1021.0 |
| 20260505075547 | 67 | 115 | 3.0 | 7.0 | 0.00 | 0.00 | 0.00 | 88 | 1020.9 |
| 20260505075047 | 67 | 109 | 4.0 | 7.0 | 0.00 | 0.00 | 0.00 | 88 | 1020.9 |
| 20260505074547 | 67 | 109 | 4.0 | 7.0 | 0.00 | 0.00 | 0.00 | 88 | 1020.9 |
| 20260505074047 | 67 | 107 | 5.0 | 8.0 | 0.00 | 0.00 | 0.00 | 88 | 1020.9 |
| 20260505073547 | 67 | 103 | 6.0 | 10.0 | 0.00 | 0.00 | 0.00 | 87 | 1021.0 |
| 20260505073047 | 67 | 106 | 5.0 | 8.0 | 0.00 | 0.00 | 0.00 | 87 | 1020.9 |
| 20260505072546 | 67 | 100 | 5.0 | 8.0 | 0.00 | 0.00 | 0.00 | 87 | 1021.0 |
| 20260505072047 | 67 | 100 | 5.0 | 8.0 | 0.00 | 0.00 | 0.00 | 87 | 1021.0 |
| 20260505071547 | 67 | 103 | 5.0 | 8.0 | 0.00 | 0.00 | 0.00 | 87 | 1021.0 |
| 20260505071047 | 68 | 100 | 6.0 | 8.0 | 0.00 | 0.00 | 0.00 | 86 | 1021.0 |
| 20260505070546 | 68 | 102 | 5.0 | 7.0 | 0.00 | 0.00 | 0.00 | 86 | 1021.0 |
| 20260505070054 | 68 | 102 | 5.0 | 7.0 | 0.00 | 0.00 | 0.00 | 86 | 1021.0 |
| 20260505065552 | 68 | 99 | 5.0 | 9.0 | 0.00 | 0.00 | 0.00 | 85 | 1021.0 |
| 20260505065046 | 68 | 99 | 6.0 | 9.0 | 0.00 | 0.00 | 0.00 | 85 | 1021.0 |
| 20260505064546 | 68 | 100 | 5.0 | 7.0 | 0.00 | 0.00 | 0.00 | 85 | 1021.0 |
| 20260505064046 | 68 | 97 | 5.0 | 8.0 | 0.00 | 0.00 | 0.00 | 85 | 1021.0 |
| 20260505063546 | 68 | 97 | 5.0 | 8.0 | 0.00 | 0.00 | 0.00 | 85 | 1021.0 |
| 20260505063049 | 68 | 103 | 5.0 | 8.0 | 0.00 | 0.00 | 0.00 | 84 | 1021.0 |
| 20260505062547 | 68 | 106 | 6.0 | 9.0 | 0.00 | 0.00 | 0.00 | 84 | 1021.0 |
| 20260505062047 | 68 | 106 | 5.0 | 8.0 | 0.00 | 0.00 | 0.00 | 84 | 1020.9 |
| 20260505061546 | 69 | 102 | 5.0 | 8.0 | 0.00 | 0.00 | 0.00 | 84 | 1020.9 |
| 20260505061047 | 69 | 102 | 5.0 | 8.0 | 0.00 | 0.00 | 0.00 | 84 | 1020.9 |
| 20260505060546 | 69 | 98 | 4.0 | 6.0 | 0.00 | 0.00 | 0.00 | 83 | 1020.9 |
| 20260505060046 | 69 | 99 | 4.0 | 8.0 | 0.00 | 0.00 | 0.00 | 84 | 1020.9 |
| 20260505055546 | 69 | 107 | 3.0 | 6.0 | 0.00 | 0.00 | 0.00 | 84 | 1021.0 |
| 20260505055046 | 69 | 108 | 3.0 | 8.0 | 0.00 | 0.00 | 0.00 | 84 | 1020.9 |
| 20260505054546 | 69 | 108 | 3.0 | 8.0 | 0.00 | 0.00 | 0.00 | 84 | 1020.9 |
| 20260505054047 | 69 | 115 | 3.0 | 6.0 | 0.00 | 0.00 | 0.00 | 84 | 1021.2 |
| 20260505053546 | 69 | 108 | 3.0 | 8.0 | 0.00 | 0.00 | 0.00 | 84 | 1021.0 |
| 20260505053046 | 69 | 108 | 3.0 | 8.0 | 0.00 | 0.00 | 0.00 | 84 | 1021.0 |
| 20260505052547 | 69 | 113 | 3.0 | 6.0 | 0.00 | 0.00 | 0.00 | 84 | 1021.0 |
| 20260505052046 | 69 | 109 | 3.0 | 6.0 | 0.00 | 0.00 | 0.00 | 84 | 1021.0 |
| 20260505051546 | 69 | 112 | 3.0 | 6.0 | 0.00 | 0.00 | 0.00 | 84 | 1021.2 |
| 20260505051046 | 69 | 112 | 3.0 | 6.0 | 0.00 | 0.00 | 0.00 | 84 | 1021.2 |
| 20260505050546 | 69 | 111 | 3.0 | 7.0 | 0.00 | 0.00 | 0.00 | 84 | 1021.2 |
| 20260505041546 | 70 | 100 | 5.0 | 7.0 | 0.00 | 0.00 | 0.00 | 83 | 1021.3 |
| 20260505041046 | 70 | 100 | 5.0 | 7.0 | 0.00 | 0.00 | 0.00 | 83 | 1021.3 |
| 20260505040546 | 70 | 100 | 5.0 | 7.0 | 0.00 | 0.00 | 0.00 | 83 | 1021.3 |
| 20260505040046 | 70 | 101 | 4.0 | 7.0 | 0.00 | 0.00 | 0.00 | 83 | 1021.5 |
| 20260505035546 | 70 | 99 | 5.0 | 8.0 | 0.00 | 0.00 | 0.00 | 83 | 1021.5 |
| 20260505035046 | 70 | 98 | 4.0 | 7.0 | 0.00 | 0.00 | 0.00 | 83 | 1021.5 |
| 20260505034546 | 70 | 97 | 4.0 | 7.0 | 0.00 | 0.00 | 0.00 | 83 | 1021.5 |
| 20260505034046 | 70 | 99 | 4.0 | 7.0 | 0.00 | 0.00 | 0.00 | 83 | 1021.5 |
| 20260505033546 | 70 | 94 | 4.0 | 6.0 | 0.00 | 0.00 | 0.00 | 83 | 1021.5 |
| 20260505033047 | 70 | 91 | 4.0 | 6.0 | 0.00 | 0.00 | 0.00 | 82 | 1021.5 |
| 20260505032546 | 70 | 93 | 4.0 | 6.0 | 0.00 | 0.00 | 0.00 | 83 | 1021.5 |
| 20260505032046 | 70 | 96 | 4.0 | 8.0 | 0.00 | 0.00 | 0.00 | 82 | 1021.5 |
| 20260505031546 | 70 | 96 | 5.0 | 8.0 | 0.00 | 0.00 | 0.00 | 82 | 1021.5 |
| 20260505031046 | 70 | 95 | 5.0 | 7.0 | 0.00 | 0.00 | 0.00 | 81 | 1021.2 |
| 20260505030546 | 70 | 95 | 5.0 | 7.0 | 0.00 | 0.00 | 0.00 | 81 | 1021.2 |
| 20260505030046 | 70 | 95 | 5.0 | 8.0 | 0.00 | 0.00 | 0.00 | 81 | 1021.2 |
| 20260505025546 | 70 | 95 | 5.0 | 7.0 | 0.00 | 0.00 | 0.00 | 81 | 1021.2 |
| 20260505025046 | 70 | 96 | 5.0 | 7.0 | 0.00 | 0.00 | 0.00 | 80 | 1021.5 |
| 20260505024546 | 71 | 92 | 4.0 | 9.0 | 0.00 | 0.00 | 0.00 | 80 | 1021.2 |
| 20260505024046 | 71 | 89 | 4.0 | 7.0 | 0.00 | 0.00 | 0.00 | 80 | 1021.2 |
| 20260505023546 | 71 | 93 | 4.0 | 7.0 | 0.00 | 0.00 | 0.00 | 79 | 1021.2 |
| 20260505023046 | 71 | 95 | 5.0 | 8.0 | 0.00 | 0.00 | 0.00 | 79 | 1021.2 |
| 20260505022546 | 71 | 102 | 5.0 | 8.0 | 0.00 | 0.00 | 0.00 | 78 | 1021.2 |
| 20260505022046 | 71 | 103 | 5.0 | 8.0 | 0.00 | 0.00 | 0.00 | 78 | 1021.2 |
| 20260505021546 | 71 | 103 | 4.0 | 7.0 | 0.00 | 0.00 | 0.00 | 78 | 1021.2 |
| 20260505021046 | 71 | 101 | 4.0 | 7.0 | 0.00 | 0.00 | 0.00 | 79 | 1021.1 |
| 20260505020546 | 71 | 106 | 4.0 | 7.0 | 0.00 | 0.00 | 0.00 | 79 | 1021.2 |
| 20260505020046 | 71 | 112 | 3.0 | 5.0 | 0.00 | 0.00 | 0.00 | 79 | 1021.2 |
| 20260505015546 | 71 | 113 | 3.0 | 5.0 | 0.00 | 0.00 | 0.00 | 79 | 1021.1 |
| 20260505015046 | 71 | 113 | 2.0 | 6.0 | 0.00 | 0.00 | 0.00 | 79 | 1021.1 |
| 20260505014546 | 71 | 122 | 2.0 | 7.0 | 0.00 | 0.00 | 0.00 | 78 | 1021.1 |
| 20260505014046 | 71 | 119 | 2.0 | 5.0 | 0.00 | 0.00 | 0.00 | 78 | 1021.1 |
| 20260505013546 | 71 | 121 | 3.0 | 6.0 | 0.00 | 0.00 | 0.00 | 78 | 1021.1 |
| 20260505013046 | 71 | 120 | 3.0 | 7.0 | 0.00 | 0.00 | 0.00 | 78 | 1020.9 |
| 20260505012546 | 71 | 129 | 3.0 | 7.0 | 0.00 | 0.00 | 0.00 | 79 | 1020.9 |
| 20260505012046 | 71 | 129 | 4.0 | 6.0 | 0.00 | 0.00 | 0.00 | 79 | 1021.0 |
| 20260505011546 | 71 | 134 | 4.0 | 7.0 | 0.00 | 0.00 | 0.00 | 79 | 1020.9 |
| 20260505011046 | 72 | 135 | 4.0 | 6.0 | 0.00 | 0.00 | 0.00 | 78 | 1020.9 |
| 20260505010546 | 72 | 135 | 4.0 | 6.0 | 0.00 | 0.00 | 0.00 | 78 | 1020.9 |
| 20260505010046 | 72 | 133 | 3.0 | 7.0 | 0.00 | 0.00 | 0.00 | 77 | 1020.9 |
| 20260505005546 | 72 | 136 | 3.0 | 7.0 | 0.00 | 0.00 | 0.00 | 77 | 1020.9 |
| 20260505005046 | 72 | 136 | 4.0 | 6.0 | 0.00 | 0.00 | 0.00 | 77 | 1020.9 |
| 20260505004546 | 72 | 132 | 4.0 | 6.0 | 0.00 | 0.00 | 0.00 | 77 | 1020.8 |
| 20260505004046 | 72 | 130 | 4.0 | 7.0 | 0.00 | 0.00 | 0.00 | 77 | 1020.8 |
| 20260505003546 | 72 | 132 | 4.0 | 7.0 | 0.00 | 0.00 | 0.00 | 76 | 1020.8 |
| 20260505003046 | 73 | 134 | 4.0 | 6.0 | 0.00 | 0.00 | 0.00 | 76 | 1020.8 |
| 20260505002546 | 73 | 134 | 4.0 | 7.0 | 0.00 | 0.00 | 0.00 | 75 | 1020.8 |
| 20260505002046 | 73 | 132 | 4.0 | 7.0 | 0.00 | 0.00 | 0.00 | 75 | 1020.7 |
| 20260505001546 | 73 | 130 | 4.0 | 7.0 | 0.00 | 0.00 | 0.00 | 74 | 1020.7 |
| 20260505001046 | 73 | 127 | 4.0 | 6.0 | 0.00 | 0.00 | 0.00 | 74 | 1020.7 |
| 20260505000546 | 73 | 124 | 3.0 | 7.0 | 0.00 | 0.00 | 0.00 | 73 | 1020.7 |
| 20260505000046 | 73 | 125 | 4.0 | 7.0 | 0.00 | 0.00 | 0.00 | 73 | 1020.5 |
| 20260504235546 | 74 | 121 | 3.0 | 7.0 | 0.00 | 0.00 | 0.00 | 73 | 1020.5 |
| 20260504235046 | 74 | 127 | 3.0 | 7.0 | 0.00 | 0.00 | 0.00 | 73 | 1020.4 |
| 20260504234546 | 74 | 128 | 4.0 | 6.0 | 0.00 | 0.00 | 0.00 | 74 | 1020.4 |
| 20260504234046 | 74 | 135 | 4.0 | 6.0 | 0.00 | 0.00 | 0.00 | 73 | 1020.4 |
| 20260504233546 | 74 | 129 | 4.0 | 7.0 | 0.00 | 0.00 | 0.00 | 73 | 1020.4 |
| 20260504233046 | 74 | 141 | 5.0 | 7.0 | 0.00 | 0.00 | 0.00 | 72 | 1020.4 |
| 20260504232546 | 74 | 136 | 5.0 | 7.0 | 0.00 | 0.00 | 0.00 | 72 | 1020.4 |
| 20260504232046 | 74 | 132 | 4.0 | 7.0 | 0.00 | 0.00 | 0.00 | 72 | 1020.2 |
| 20260504231546 | 74 | 130 | 4.0 | 5.0 | 0.00 | 0.00 | 0.00 | 72 | 1020.2 |
| 20260504231046 | 73 | 130 | 3.0 | 5.0 | 0.00 | 0.00 | 0.00 | 73 | 1019.9 |
| 20260504230546 | 73 | 127 | 2.0 | 5.0 | 0.00 | 0.00 | 0.00 | 73 | 1019.9 |
| 20260504230046 | 73 | 129 | 2.0 | 6.0 | 0.00 | 0.00 | 0.00 | 74 | 1019.7 |
| 20260504225546 | 73 | 117 | 2.0 | 5.0 | 0.00 | 0.00 | 0.00 | 74 | 1019.9 |
| 20260504225046 | 73 | 121 | 2.0 | 3.0 | 0.00 | 0.00 | 0.00 | 74 | 1019.7 |
| 20260504224546 | 73 | 114 | 2.0 | 4.0 | 0.00 | 0.00 | 0.00 | 73 | 1019.9 |
| 20260504224046 | 73 | 133 | 3.0 | 4.0 | 0.00 | 0.00 | 0.00 | 72 | 1019.9 |
| 20260504223546 | 74 | 146 | 3.0 | 5.0 | 0.00 | 0.00 | 0.00 | 71 | 1019.7 |
| 20260504223046 | 74 | 138 | 3.0 | 4.0 | 0.00 | 0.00 | 0.00 | 70 | 1019.7 |
| 20260504222546 | 74 | 139 | 3.0 | 5.0 | 0.00 | 0.00 | 0.00 | 71 | 1019.6 |
| 20260504222046 | 74 | 148 | 3.0 | 4.0 | 0.00 | 0.00 | 0.00 | 70 | 1019.6 |
| 20260504221546 | 74 | 150 | 3.0 | 4.0 | 0.00 | 0.00 | 0.00 | 70 | 1019.4 |
| 20260504221046 | 74 | 148 | 2.0 | 4.0 | 0.00 | 0.00 | 0.00 | 71 | 1019.4 |
| 20260504220546 | 74 | 146 | 2.0 | 4.0 | 0.00 | 0.00 | 0.00 | 71 | 1019.3 |
| 20260504220046 | 74 | 146 | 2.0 | 3.0 | 0.00 | 0.00 | 0.00 | 71 | 1019.3 |
| 20260504215546 | 75 | 146 | 2.0 | 3.0 | 0.00 | 0.00 | 0.00 | 71 | 1019.1 |
| 20260504215046 | 74 | 153 | 2.0 | 3.0 | 0.00 | 0.00 | 0.00 | 70 | 1019.1 |
| 20260504214546 | 74 | 156 | 2.0 | 3.0 | 0.00 | 0.00 | 0.00 | 71 | 1019.1 |
| 20260504214046 | 75 | 153 | 2.0 | 3.0 | 0.00 | 0.00 | 0.00 | 71 | 1019.0 |
| 20260504213546 | 75 | 155 | 2.0 | 3.0 | 0.00 | 0.00 | 0.00 | 71 | 1018.9 |
| 20260504213046 | 75 | 148 | 2.0 | 3.0 | 0.00 | 0.00 | 0.00 | 72 | 1018.9 |
| 20260504212546 | 75 | 142 | 2.0 | 3.0 | 0.00 | 0.00 | 0.00 | 72 | 1018.9 |
| 20260504212046 | 76 | 151 | 2.0 | 3.0 | 0.00 | 0.00 | 0.00 | 70 | 1019.1 |
| 20260504211546 | 76 | 154 | 2.0 | 2.0 | 0.00 | 0.00 | 0.00 | 69 | 1019.0 |
| 20260504211046 | 76 | 145 | 2.0 | 3.0 | 0.00 | 0.00 | 0.00 | 68 | 1019.0 |
| 20260504210546 | 76 | 142 | 2.0 | 3.0 | 0.00 | 0.00 | 0.00 | 68 | 1019.0 |
| 20260504210046 | 76 | 143 | 2.0 | 3.0 | 0.00 | 0.00 | 0.00 | 66 | 1018.9 |
| 20260504205546 | 77 | 147 | 2.0 | 3.0 | 0.00 | 0.00 | 0.00 | 65 | 1018.9 |
| 20260504205046 | 77 | 146 | 2.0 | 3.0 | 0.00 | 0.00 | 0.00 | 64 | 1018.9 |
| 20260504204546 | 77 | 144 | 3.0 | 4.0 | 0.00 | 0.00 | 0.00 | 64 | 1018.8 |
| 20260504204046 | 78 | 133 | 2.0 | 4.0 | 0.00 | 0.00 | 0.00 | 64 | 1018.8 |
| 20260504203546 | 78 | 132 | 2.0 | 3.0 | 0.00 | 0.00 | 0.00 | 63 | 1018.8 |
| 20260504203046 | 78 | 121 | 2.0 | 3.0 | 0.00 | 0.00 | 0.00 | 63 | 1018.6 |
| 20260504202546 | 79 | 122 | 1.0 | 2.0 | 0.00 | 0.00 | 0.00 | 63 | 1018.6 |
| 20260504202046 | 79 | 111 | 1.0 | 2.0 | 0.00 | 0.00 | 0.00 | 63 | 1018.8 |
| 20260504201546 | 80 | 95 | 1.0 | 2.0 | 0.00 | 0.00 | 0.00 | 62 | 1018.8 |
| 20260504201046 | 80 | 114 | 1.0 | 2.0 | 0.00 | 0.00 | 0.00 | 60 | 1018.6 |
| 20260504200546 | 81 | 116 | 1.0 | 2.0 | 0.00 | 0.00 | 0.00 | 59 | 1018.6 |
| 20260504200046 | 81 | 118 | 2.0 | 4.0 | 0.00 | 0.00 | 0.00 | 58 | 1018.6 |
| 20260504195546 | 81 | 111 | 2.0 | 5.0 | 0.00 | 0.00 | 0.00 | 58 | 1018.8 |
| 20260504195046 | 81 | 103 | 3.0 | 4.0 | 0.00 | 0.00 | 0.00 | 57 | 1018.8 |
| 20260504194546 | 81 | 104 | 3.0 | 4.0 | 0.00 | 0.00 | 0.00 | 57 | 1018.8 |
| 20260504194046 | 81 | 102 | 3.0 | 4.0 | 0.00 | 0.00 | 0.00 | 58 | 1018.8 |
| 20260504193546 | 81 | 111 | 2.0 | 4.0 | 0.00 | 0.00 | 0.00 | 58 | 1018.6 |
| 20260504193046 | 82 | 90 | 2.0 | 3.0 | 0.00 | 0.00 | 0.00 | 55 | 1018.6 |
| 20260504192546 | 82 | 75 | 2.0 | 4.0 | 0.00 | 0.00 | 0.00 | 52 | 1018.6 |
| 20260504192046 | 83 | 84 | 1.0 | 2.0 | 0.00 | 0.00 | 0.00 | 50 | 1018.6 |
| 20260504191546 | 83 | 85 | 1.0 | 3.0 | 0.00 | 0.00 | 0.00 | 51 | 1018.6 |
| 20260504191046 | 83 | 92 | 2.0 | 5.0 | 0.00 | 0.00 | 0.00 | 50 | 1018.6 |
| 20260504190546 | 83 | 103 | 3.0 | 6.0 | 0.00 | 0.00 | 0.00 | 51 | 1018.6 |
| 20260504190046 | 83 | 80 | 3.0 | 6.0 | 0.00 | 0.00 | 0.00 | 51 | 1018.6 |
| 20260504185545 | 83 | 55 | 3.0 | 5.0 | 0.00 | 0.00 | 0.00 | 51 | 1018.5 |
| 20260504185046 | 83 | 58 | 3.0 | 7.0 | 0.00 | 0.00 | 0.00 | 50 | 1018.6 |
| 20260504184545 | 84 | 79 | 3.0 | 7.0 | 0.00 | 0.00 | 0.00 | 49 | 1018.6 |
| 20260504184045 | 85 | 19 | 2.0 | 4.0 | 0.00 | 0.00 | 0.00 | 48 | 1018.6 |
| 20260504183546 | 84 | 2 | 1.0 | 5.0 | 0.00 | 0.00 | 0.00 | 50 | 1018.5 |
| 20260504183046 | 83 | 122 | 2.0 | 4.0 | 0.00 | 0.00 | 0.00 | 49 | 1018.6 |
| 20260504182546 | 83 | 18 | 2.0 | 4.0 | 0.00 | 0.00 | 0.00 | 49 | 1018.6 |
| 20260504182046 | 84 | 26 | 2.0 | 5.0 | 0.00 | 0.00 | 0.00 | 48 | 1018.6 |
| 20260504181545 | 83 | 353 | 3.0 | 7.0 | 0.00 | 0.00 | 0.00 | 50 | 1018.8 |
| 20260504181045 | 82 | 15 | 5.0 | 9.0 | 0.00 | 0.00 | 0.00 | 52 | 1018.8 |
| 20260504180546 | 83 | 46 | 4.0 | 9.0 | 0.00 | 0.00 | 0.00 | 51 | 1018.8 |
| 20260504180046 | 83 | 64 | 3.0 | 7.0 | 0.00 | 0.00 | 0.00 | 51 | 1018.8 |
| 20260504175545 | 83 | 61 | 3.0 | 6.0 | 0.00 | 0.00 | 0.00 | 51 | 1018.8 |
| 20260504175046 | 83 | 46 | 3.0 | 5.0 | 0.00 | 0.00 | 0.00 | 51 | 1019.0 |
| 20260504174545 | 83 | 27 | 5.0 | 9.0 | 0.00 | 0.00 | 0.00 | 51 | 1019.1 |
| 20260504174045 | 83 | 46 | 4.0 | 7.0 | 0.00 | 0.00 | 0.00 | 52 | 1019.1 |
| 20260504173546 | 83 | 57 | 4.0 | 8.0 | 0.00 | 0.00 | 0.00 | 51 | 1019.1 |
| 20260504173045 | 83 | 15 | 3.0 | 7.0 | 0.00 | 0.00 | 0.00 | 52 | 1019.1 |
| 20260504172545 | 83 | 30 | 3.0 | 7.0 | 0.00 | 0.00 | 0.00 | 52 | 1019.2 |
| 20260504172046 | 83 | 13 | 2.0 | 5.0 | 0.00 | 0.00 | 0.00 | 52 | 1019.2 |
| 20260504171547 | 82 | 100 | 2.0 | 5.0 | 0.00 | 0.00 | 0.00 | 53 | 1019.3 |
| 20260504171045 | 83 | 343 | 2.0 | 5.0 | 0.00 | 0.00 | 0.00 | 51 | 1019.4 |
| 20260504170545 | 83 | 332 | 3.0 | 8.0 | 0.00 | 0.00 | 0.00 | 51 | 1019.4 |
| 20260504151045 | 78 | 28 | 5.0 | 9.0 | 0.00 | 0.00 | 0.00 | 60 | 1020.8 |
| 20260504150545 | 77 | 20 | 4.0 | 11.0 | 0.00 | 0.00 | 0.00 | 59 | 1020.9 |
| 20260504141045 | 75 | 57 | 5.0 | 10.0 | 0.00 | 0.00 | 0.00 | 64 | 1021.5 |
| 20260504140545 | 75 | 68 | 5.0 | 9.0 | 0.00 | 0.00 | 0.00 | 64 | 1021.5 |
| 20260504130545 | 71 | 83 | 8.0 | 12.0 | 0.00 | 0.00 | 0.00 | 68 | 1022.2 |